Location: *
(45.4590°N, 16.3650°E)
Time: 09:45:03
(UTC+00:00)

H-2A ROCKET BODY - Pass Details

Date: 17 January 2020
Orbit: 242 x 15397 km, 28.6° (Epoch: 18 February)

Event Time Altitude Azimuth Distance (km) Brightness Sun altitude
Rises 16:49:53 0° 253° (WSW) 8,524 9.5 -12.2°
Reaches altitude 10° 16:59:47 10° 241° (WSW) 4,880 7.4 -13.8°
Maximum altitude 17:06:29 17° 205° (SSW) 2,507 5.2 -15.0°
Drops below altitude 10° 17:09:47 10° 163° (SSE) 2,138 4.3 -15.5°
Enters shadow 17:11:21 - 144° (SE) 2,383 4.3 -15.8°
